User: anonymous   Login
Location: Columbia
(38.9520°N, 92.3340°W)
Time: 12:46:39
(UTC-06:00)
Language:

CZ-4B R/B - Orbit

View from above orbital plane
View from above orbital plane
View from above satellite
View from above satellite

Ground track
Ground track

The orbit data is extracted from the following two-line orbital elements,

1 29093U 06015B   16044.80578856  .00008408  00000-0  22922-3 0  9997
2 29093  97.4834 140.0879 0070479 272.3699  86.9476 15.35199796542325
Epoch (UTC): 13 February 2016 19:20:20
Eccentricity: 0.0070479
inclination: 97.4834°
perigee height: 412 km
apogee height: 508 km
right ascension of ascending node: 140.0879°
argument of perigee: 272.3699°
revolutions per day: 15.35199796
mean anomaly at epoch: 86.9476°
orbit number at epoch: 54232

The dashed part of the orbit path shows where the satellite is in the earth's shadow,  

DLR